GEFSCGP_con_probscp_126.txt.gz
Probability
0 0 0 0 0 0 0 0 0 0 0 1 1 2 5 11 21 36 48 56 58 51 44 45 47 46 45 43 35 25 18 15 12 7 4 2 2 3 2 2 3 3 2 2
0 0 0 0 0 0 0 0 0 0 0 0 0 1 4 9 19 31 41 49 53 50 46 46 46 44 43 40 32 23 18 16 13 9 5 2 1 2 2 2 2 2 2 2
0 0 0 0 0 0 0 0 0 0 0 0 0 0 2 7 14 22 30 39 45 47 47 45 41 38 37 34 28 21 18 17 15 11 7 4 2 1 1 2 2 1 1 2
0 0 0 0 0 0 0 0 0 0 0 0 0 0 1 5 10 15 21 30 36 41 43 40 35 32 31 29 25 19 17 17 15 11 8 5 2 0 1 3 3 1 0 1
0 0 0 0 0 0 0 0 0 0 0 0 0 0 1 4 7 10 15 23 29 32 34 32 30 28 27 26 23 18 17 15 12 8 6 4 2 0 1 4 5 3 1 1
0 0 0 0 0 0 0 0 0 0 0 0 0 0 0 2 6 8 11 18 24 27 27 26 25 23 22 21 18 15 15 14 10 7 5 3 1 0 1 4 6 5 3 2
0 0 0 0 0 0 0 0 0 0 0 0 0 0 0 2 5 7 10 16 22 24 22 21 19 15 14 15 13 12 12 12 10 8 5 3 1 0 1 3 5 5 4 3
0 0 0 0 0 0 0 0 0 0 0 0 0 0 1 2 4 6 10 14 18 19 17 14 12 10 9 10 10 10 10 8 7 6 5 3 1 0 1 2 2 3 3 3
0 0 0 0 0 0 0 0 0 0 0 0 0 0 1 3 4 6 9 12 14 14 11 8 7 6 6 7 8 9 9 8 5 4 4 3 1 0 1 2 1 1 2 2
0 0 0 0 0 0 0 0 0 0 0 0 0 0 1 3 4 5 9 11 12 12 9 5 4 4 5 6 8 9 9 9 8 6 4 4 2 2 2 2 1 0 1 1
0 0 0 0 0 0 0 0 0 0 0 0 0 0 1 2 3 4 7 10 10 9 6 4 2 3 4 5 7 8 9 10 10 8 7 5 4 3 3 3 2 1 0 0
0 0 0 0 0 0 0 0 0 0 0 0 0 0 0 1 2 4 6 9 10 8 6 4 2 1 3 4 5 7 9 9 10 9 9 8 6 4 3 3 2 1 0 0
0 0 0 0 0 0 0 0 0 0 0 0 0 0 1 2 5 7 8 9 10 10 10 7 3 1 1 3 5 6 8 9 10 10 10 10 9 7 4 3 1 1 1 1
0 0 0 0 0 0 0 0 0 0 0 0 1 1 3 7 11 13 13 11 11 13 13 10 5 2 2 5 7 7 8 8 9 9 10 10 10 9 8 5 3 2 2 2
0 0 0 0 0 0 0 0 0 0 0 1 2 4 8 13 17 19 17 15 13 13 13 12 8 6 6 7 9 10 9 8 8 9 10 10 10 10 8 6 4 4 4 4
0 0 0 0 0 0 0 0 1 2 2 2 4 8 13 18 21 21 19 18 17 15 15 16 15 12 10 9 10 12 11 9 9 10 11 11 10 10 8 6 5 5 5 5
0 0 0 0 0 0 0 1 3 6 8 8 9 14 20 24 25 22 20 21 21 19 17 18 18 16 13 11 13 15 14 13 11 11 11 11 10 10 8 6 6 6 5 5
0 0 0 0 0 0 0 1 4 9 13 15 15 19 24 27 28 25 22 22 22 20 17 16 15 15 14 14 15 16 16 16 14 13 11 10 8 7 7 6 6 5 4 4
0 0 0 0 0 0 1 1 2 7 13 16 17 19 20 22 27 27 24 21 21 19 18 15 12 12 13 14 15 16 15 15 14 12 10 8 6 5 4 4 4 4 3 3
0 0 0 0 0 0 0 0 1 4 9 12 14 16 14 15 21 23 20 17 17 19 20 18 14 12 13 15 16 16 14 14 13 10 8 7 6 5 4 4 3 3 3 3
0 0 0 0 0 0 0 0 0 2 5 8 11 13 12 11 14 16 15 13 13 16 19 18 16 13 13 17 20 19 17 15 12 9 7 6 6 6 6 5 4 3 3 3
0 0 0 0 0 0 1 1 1 2 4 5 6 8 9 9 9 11 11 11 11 12 13 14 14 13 12 16 20 20 17 13 10 8 6 4 5 7 6 4 3 2 2 1
1 0 0 0 0 0 1 2 3 4 4 3 3 5 6 6 6 6 7 7 8 9 9 10 10 10 10 12 15 14 10 7 5 4 3 3 4 5 5 2 1 1 1 0
2 1 0 0 0 0 1 2 3 4 3 3 3 4 4 4 3 3 3 4 5 5 6 7 7 7 7 7 7 6 3 2 1 1 1 1 2 4 3 2 0 0 0 0
2 1 0 0 0 0 1 2 3 2 1 1 2 3 2 2 1 1 3 3 3 3 4 5 5 5 5 4 3 2 1 1 0 0 0 0 1 2 2 1 0 0 0 0
1 0 0 0 0 0 1 2 2 1 0 0 1 2 1 1 0 1 2 3 3 3 4 5 5 4 2 2 1 1 1 1 0 0 0 0 0 1 1 0 0 0 0 0

GEFSCGP_con_probscp_132.txt.gz
Probability
0 0 0 0 0 0 0 0 0 0 0 0 0 0 0 0 4 11 16 16 17 22 28 32 35 38 37 30 21 16 13 10 7 6 4 2 1 0 1 2 2 2 1 0
0 0 0 0 0 0 0 0 0 0 0 0 0 0 0 1 4 9 12 13 16 22 28 31 33 34 33 29 21 14 11 8 6 5 3 1 1 0 0 1 1 1 0 0
0 0 0 0 0 0 0 0 0 0 0 0 0 0 0 1 3 6 8 10 14 21 27 27 27 28 28 25 18 12 10 8 6 4 3 2 2 1 0 0 0 0 0 0
0 0 0 0 0 0 0 0 0 0 0 0 0 0 0 0 2 5 7 8 11 17 21 20 19 21 21 19 14 8 8 9 8 6 4 3 2 1 0 0 0 0 0 0
0 0 0 0 0 0 0 0 0 0 0 0 0 0 0 0 1 3 6 6 7 11 13 13 13 14 13 11 9 5 4 6 8 7 5 4 2 1 0 0 0 0 1 1
0 0 0 0 0 0 0 0 0 0 0 0 0 0 0 0 0 1 3 4 5 7 8 10 10 10 8 7 4 3 2 3 4 6 6 4 3 1 0 0 0 0 1 2
0 0 0 0 0 0 0 0 0 0 0 0 0 0 0 0 0 0 1 2 4 5 7 8 8 8 7 6 3 2 1 1 1 4 6 4 2 1 0 0 0 0 1 1
0 0 0 0 0 0 0 0 0 0 0 0 0 0 0 0 0 0 1 3 5 4 4 5 5 6 7 6 4 3 2 1 1 3 4 3 1 1 0 0 0 0 0 0
0 0 0 0 0 0 0 0 0 0 0 0 0 0 0 0 0 0 1 4 5 4 2 2 3 4 6 6 4 4 3 3 3 2 2 1 0 0 0 0 0 0 0 0
0 0 0 0 0 0 0 0 0 0 0 0 0 0 0 0 0 0 0 2 5 4 2 2 2 3 3 3 2 3 3 4 4 3 1 0 0 0 0 0 0 0 0 0
0 0 0 0 0 0 0 0 0 0 0 0 0 0 0 0 0 0 0 2 5 5 4 3 3 2 1 1 1 2 3 4 4 4 2 1 0 0 0 0 0 0 0 0
0 0 0 0 0 0 0 0 0 0 0 0 0 0 0 0 0 0 0 1 4 6 5 4 3 2 0 1 2 2 2 3 5 5 3 2 1 1 0 0 0 0 0 0
0 0 0 0 0 0 0 0 0 0 0 0 0 0 0 0 0 1 0 1 3 5 5 4 3 2 1 2 3 3 3 3 5 5 4 4 3 2 1 1 0 0 0 0
0 0 0 0 0 0 0 0 0 0 0 0 0 0 1 1 1 1 1 1 3 4 5 5 4 3 2 3 3 3 2 3 4 6 6 6 5 4 3 3 1 1 0 0
0 0 0 0 0 0 0 0 0 0 0 0 0 1 2 3 2 2 2 3 4 5 5 5 3 3 3 3 3 1 1 3 4 6 7 7 6 6 6 5 4 2 1 0
0 0 0 0 0 0 0 0 0 0 0 0 0 1 4 4 4 4 4 4 5 5 4 4 2 1 2 2 2 1 0 1 3 5 7 7 6 6 6 7 6 4 3 2
0 0 0 0 0 0 0 0 0 1 1 1 2 4 6 7 6 6 6 5 4 3 3 3 1 0 1 1 1 0 0 0 2 4 7 8 7 6 7 8 7 6 5 4
0 0 0 0 0 0 0 1 2 4 5 4 5 10 11 9 7 7 7 6 5 4 2 2 1 1 0 0 0 1 1 1 2 4 6 8 8 6 7 7 7 7 6 6
0 0 0 0 0 0 0 2 3 5 6 5 6 10 11 8 6 7 7 7 6 4 3 2 2 2 1 0 1 3 4 3 2 4 6 7 7 7 6 6 6 6 6 6
0 0 0 0 0 0 0 1 1 2 3 2 3 6 7 6 5 5 6 6 4 3 3 3 3 3 2 1 2 6 7 4 3 4 6 7 7 6 6 6 5 4 4 5
0 0 0 0 0 0 0 0 0 0 1 1 2 3 4 4 4 4 4 4 3 3 3 4 3 3 3 2 3 6 8 6 4 5 7 7 7 6 6 6 6 4 3 3
0 0 0 0 0 0 0 0 0 0 1 2 3 3 4 4 3 3 3 3 3 3 3 4 3 3 3 4 5 6 7 7 6 7 8 7 7 6 6 6 6 5 3 1
0 0 0 1 1 1 0 0 0 1 2 3 3 4 4 4 4 3 2 2 2 1 1 2 2 2 5 6 6 6 6 5 5 6 7 6 6 6 6 6 5 3 1 0
1 0 1 2 2 2 1 0 0 1 3 4 3 3 3 4 3 3 1 1 1 0 0 0 1 3 5 6 5 4 3 3 3 3 3 3 3 3 3 3 3 1 0 0
1 0 1 2 2 2 1 0 0 1 2 3 3 2 2 3 3 3 2 1 0 0 1 1 2 4 5 4 3 2 1 1 1 0 1 1 1 1 1 1 1 0 0 0
1 0 0 1 1 1 1 0 0 0 1 2 2 2 2 2 2 3 3 2 1 1 2 2 3 4 4 4 2 1 0 0 0 0 0 0 0 0 0 0 0 0 0 0

GEFSCGP_con_probscp_138.txt.gz
Probability
0 0 0 0 0 0 0 0 0 0 0 0 0 0 0 1 1 0 2 9 16 23 30 37 41 41 42 43 42 40 38 33 29 24 16 12 10 8 6 6 6 6 5 4
0 0 0 0 0 0 0 0 0 0 0 0 0 0 0 1 2 2 4 10 16 24 32 38 39 39 39 39 38 37 35 32 27 22 17 14 11 9 7 6 6 6 5 6
0 0 0 0 0 0 0 0 0 0 0 0 0 0 0 1 1 3 8 12 15 21 28 34 37 39 36 32 29 29 28 26 23 20 18 15 12 10 7 6 6 7 6 6
0 0 0 0 0 0 0 0 0 0 0 0 0 0 0 0 1 4 10 12 12 14 18 26 33 37 35 25 19 20 20 19 18 18 17 13 10 9 6 5 7 8 7 6
0 0 0 0 0 0 0 0 0 0 0 0 0 0 0 0 0 4 8 9 10 11 14 19 27 32 30 20 13 14 14 14 14 14 14 12 9 8 6 5 6 8 9 9
0 0 0 0 0 0 0 0 0 0 0 0 0 0 0 0 0 2 5 7 9 13 15 17 21 25 25 18 13 12 11 10 9 10 11 11 10 9 7 6 5 6 9 10
0 0 0 0 0 0 0 0 0 0 0 0 0 0 0 0 0 1 3 5 8 13 16 16 16 18 19 17 14 12 10 7 6 6 8 10 11 10 8 7 5 5 6 7
0 0 0 0 0 0 0 0 0 0 0 0 0 0 0 0 0 1 2 4 7 11 13 12 12 12 12 11 10 9 8 7 6 6 6 9 9 9 7 7 6 6 6 6
0 0 0 0 0 0 0 0 0 0 0 0 0 0 0 0 0 1 1 3 6 9 10 9 9 9 8 6 5 6 7 8 8 8 7 7 7 6 6 6 6 7 7 7
0 0 0 0 0 0 0 0 0 0 0 0 0 0 0 0 0 0 1 3 5 6 7 7 7 8 7 5 5 6 8 9 10 8 6 5 5 5 5 5 5 6 6 7
0 0 0 0 0 0 0 0 0 0 0 0 0 0 0 0 0 0 1 3 5 5 5 6 5 5 6 5 6 7 8 9 9 7 5 4 4 4 3 3 3 5 6 7
0 0 0 0 0 0 0 0 0 0 0 0 0 0 0 0 1 1 3 7 8 7 7 7 5 3 3 4 6 6 6 7 8 7 5 5 5 3 3 3 2 4 5 6
0 0 0 0 0 0 0 0 0 0 0 0 0 0 0 1 3 5 7 10 12 12 11 11 10 7 5 5 5 5 5 6 8 8 8 8 7 5 4 3 4 4 4 4
0 0 0 0 0 0 0 0 0 0 0 0 0 0 1 3 6 9 11 11 15 17 16 16 16 15 12 9 6 4 3 4 6 8 9 10 10 7 5 5 6 6 6 5
0 0 0 0 0 0 0 0 0 0 0 0 1 2 6 11 13 14 14 13 17 21 21 21 21 20 18 13 9 5 3 3 4 5 7 8 9 9 8 7 8 8 9 10
0 0 0 0 0 0 0 0 0 0 0 0 1 5 12 18 21 21 19 18 20 23 23 22 21 19 16 12 10 7 5 4 4 4 4 6 8 10 11 12 10 10 12 14
0 0 0 0 0 0 0 0 0 0 1 2 5 9 16 22 25 26 24 22 23 24 25 23 19 15 11 9 10 9 8 7 7 7 6 6 8 10 12 14 14 14 15 17
0 0 0 0 0 0 1 1 0 1 2 5 10 15 19 24 26 26 25 24 23 24 25 23 20 16 12 9 9 10 11 11 11 11 10 10 11 11 12 16 18 18 19 20
0 0 0 0 0 1 2 2 1 2 3 8 15 20 22 22 22 21 23 24 23 22 22 22 22 21 17 11 8 10 11 12 13 14 15 16 17 17 17 19 21 20 21 22
1 1 1 0 0 1 2 2 2 3 5 11 18 23 24 21 21 22 22 22 22 22 21 21 22 24 21 15 11 11 12 13 14 15 16 19 22 22 23 23 22 20 20 22
1 1 1 0 0 0 1 3 5 9 13 18 23 27 28 27 26 25 22 21 22 21 21 20 21 23 22 19 17 16 16 16 15 16 18 20 21 23 24 24 23 21 20 21
2 2 1 1 0 1 3 8 14 20 25 27 30 32 32 29 25 22 20 19 19 18 17 17 18 20 20 19 18 18 18 18 16 17 19 22 22 23 24 24 24 22 20 19
5 4 3 3 2 3 7 15 22 27 29 29 30 32 29 23 20 18 16 15 15 14 13 12 13 14 15 14 14 14 15 16 17 17 19 22 23 21 20 20 20 19 17 14
4 5 5 5 5 5 9 16 23 25 25 25 26 26 23 19 17 15 13 11 10 10 9 8 8 7 8 8 10 11 12 14 16 16 17 18 18 15 12 11 12 12 10 9
5 6 7 7 6 6 9 16 21 22 21 22 24 22 19 17 14 10 8 7 6 5 6 6 5 4 4 5 7 9 10 11 13 13 12 12 10 7 6 5 5 5 6 5
6 8 9 8 7 8 11 16 20 20 18 20 22 20 17 15 10 6 5 5 4 4 4 4 4 4 3 4 5 7 8 8 9 10 10 8 4 3 2 3 3 3 4 4

GEFSCGP_con_probscp_144.txt.gz
Probability
0 0 0 0 0 0 0 0 0 0 0 0 0 0 1 1 2 6 20 37 52 66 80 85 84 82 80 76 71 67 63 59 50 42 37 32 28 25 18 13 13 12 10 10
0 0 0 0 0 0 0 0 0 0 0 0 0 0 1 1 2 7 21 38 52 65 78 82 82 80 78 75 70 64 61 57 48 40 35 32 29 25 19 15 15 12 10 10
0 0 0 0 0 0 0 0 0 0 0 0 0 1 2 3 3 7 18 33 46 60 73 79 78 74 71 70 65 58 56 53 45 38 32 28 26 22 17 16 17 15 11 11
0 0 0 0 0 0 0 0 0 0 0 0 0 1 4 4 3 6 13 24 37 52 67 76 74 65 60 59 55 50 51 48 40 36 31 25 21 18 15 17 18 15 11 10
0 0 0 0 0 0 0 0 0 0 0 0 0 1 4 5 4 5 10 19 31 45 60 71 70 59 52 49 45 42 43 39 32 30 30 25 19 15 15 15 14 12 10 10
0 0 0 0 0 0 0 0 0 0 0 0 0 0 2 3 4 6 11 20 30 40 54 66 64 53 44 40 38 35 34 30 25 23 23 20 16 14 13 12 11 11 11 10
0 0 0 0 0 0 0 0 0 0 0 0 0 0 1 3 4 8 15 24 31 38 49 57 54 46 39 35 33 30 28 25 20 17 16 13 12 13 12 11 11 11 11 10
0 0 0 0 0 0 0 0 0 0 0 0 0 1 2 4 6 10 17 26 33 39 44 44 42 39 34 32 31 28 24 20 16 13 12 11 11 12 13 11 11 11 11 10
0 0 0 0 0 0 0 0 0 0 0 0 0 2 4 6 10 12 16 23 31 36 37 35 33 31 27 27 30 29 24 20 15 11 10 11 11 11 12 11 10 11 12 12
0 0 0 0 0 0 0 0 0 0 0 0 1 3 6 10 13 12 13 19 28 32 32 31 29 26 23 24 28 29 26 21 15 10 9 10 10 11 11 9 9 12 15 14
0 0 0 0 0 0 0 0 0 0 0 0 1 3 7 12 14 12 12 19 29 33 33 31 28 24 24 25 27 28 26 23 17 13 11 9 9 10 9 8 10 14 16 15
0 0 0 0 0 0 0 0 0 0 0 0 1 3 6 10 13 13 15 22 30 36 37 33 28 25 25 26 26 25 25 24 22 18 14 11 11 12 12 11 12 16 16 14
0 0 0 0 0 0 0 0 0 0 0 0 2 5 7 10 14 17 21 26 33 39 43 40 34 30 28 27 25 23 22 23 22 20 18 15 15 16 17 17 17 18 18 15
0 0 0 0 0 0 0 0 0 0 0 0 3 7 10 13 19 24 28 35 42 47 49 47 43 39 35 30 27 24 22 20 18 18 18 18 18 18 20 22 23 23 21 18
0 0 0 0 0 0 0 0 0 0 0 2 6 10 15 20 26 31 38 46 52 54 52 50 50 49 43 36 31 27 23 20 18 18 17 19 19 19 21 24 25 25 24 21
0 0 0 0 0 0 0 0 0 0 1 4 9 16 23 28 34 40 46 52 58 58 54 53 55 55 49 40 33 30 26 24 25 23 21 22 22 22 22 23 24 26 26 25
1 2 1 0 0 0 0 0 0 1 3 6 12 21 31 38 46 51 52 56 61 61 59 58 57 56 50 40 35 33 29 28 28 26 24 25 26 25 24 24 25 28 29 29
2 3 3 1 0 0 0 0 0 2 7 13 20 30 40 50 58 61 60 60 62 62 61 60 58 56 51 42 38 35 29 27 26 23 23 25 26 26 25 26 28 30 31 32
2 4 3 1 0 0 1 1 1 4 13 24 34 42 49 54 59 62 64 62 59 58 59 57 56 56 52 46 41 35 29 25 22 20 21 23 24 25 25 26 29 31 32 32
2 3 2 0 0 0 1 3 4 8 21 36 46 50 51 52 54 57 59 57 54 52 52 52 52 51 48 44 41 38 32 26 22 21 22 22 22 21 22 25 28 30 30 30
1 1 1 0 0 2 4 6 11 22 38 50 53 54 57 58 56 52 50 49 48 45 42 43 45 43 41 40 40 39 33 26 24 23 22 22 20 18 19 23 26 27 27 26
2 4 6 8 12 18 21 21 27 41 53 58 57 59 63 61 53 45 40 40 39 36 34 35 37 37 35 35 35 35 31 26 24 22 20 19 17 16 17 20 23 25 24 21
6 10 17 25 33 40 43 41 42 47 51 52 52 54 54 47 40 36 34 33 32 32 31 32 33 32 30 27 26 26 25 23 20 18 15 14 14 15 15 16 18 21 21 19
10 15 25 34 41 46 48 45 43 41 41 41 41 41 40 34 31 31 31 30 30 30 30 29 29 27 24 20 17 17 16 15 15 13 12 11 12 13 12 10 11 14 16 15
8 14 23 29 33 37 40 39 39 38 37 34 33 34 33 30 28 28 29 28 27 26 25 23 21 18 16 13 11 9 10 12 12 11 10 10 11 10 7 5 5 7 8 9
6 10 19 25 28 32 35 36 37 38 36 33 32 32 32 29 26 26 27 26 24 22 21 18 14 12 11 8 7 6 8 12 13 11 10 10 9 7 3 2 3 3 3 3

GEFSCGP_con_probscp_150.txt.gz
Probability
0 0 0 0 0 0 0 0 0 0 0 0 2 4 10 19 32 46 57 59 57 55 57 62 64 62 57 52 50 50 48 41 31 22 14 7 2 0 0 0 1 2 3 3
0 0 0 0 0 0 0 0 0 0 0 1 2 4 8 18 30 43 55 59 59 58 57 59 61 59 56 52 49 47 44 37 28 20 12 6 1 0 0 0 0 1 2 2
0 0 0 0 0 0 0 0 0 0 0 1 2 2 6 15 27 38 48 54 58 61 59 56 55 54 51 49 44 40 35 29 23 16 10 5 2 1 1 0 0 0 1 1
0 0 0 0 0 0 0 0 0 0 0 0 1 1 3 11 23 31 37 44 52 60 61 58 53 48 45 42 36 30 26 23 19 14 9 6 4 3 2 1 0 0 0 0
0 0 0 0 0 0 0 0 0 0 0 0 0 0 1 7 16 24 29 38 47 56 61 58 51 43 39 35 30 24 21 20 17 13 9 6 4 4 3 2 1 0 0 0
0 0 0 0 0 0 0 0 0 0 0 0 0 0 0 3 10 19 28 38 47 54 58 55 46 38 33 30 26 21 17 16 14 12 8 5 4 3 3 3 2 0 0 0
0 0 0 0 0 0 0 0 0 0 0 0 0 0 0 2 8 21 33 42 48 52 53 49 42 35 30 27 23 18 14 12 10 8 6 4 3 2 2 2 1 0 0 0
0 0 0 0 0 0 0 0 0 0 0 0 0 0 1 4 12 26 39 46 48 47 46 41 36 33 30 26 22 17 12 8 5 4 3 3 1 1 1 1 0 0 0 0
0 0 0 0 0 0 0 0 0 0 0 0 0 0 3 9 18 28 39 46 44 40 36 32 30 30 29 25 20 15 10 5 2 1 1 1 0 0 0 0 0 0 0 0
0 0 0 0 0 0 0 0 0 0 0 0 0 0 4 11 19 26 33 39 39 35 29 25 24 25 25 21 16 11 7 2 0 0 0 0 0 1 1 1 0 0 0 0
0 0 0 0 0 0 0 0 0 0 0 0 0 0 3 10 17 23 27 33 37 34 27 22 19 18 17 16 13 9 5 1 0 0 0 0 1 2 3 2 1 0 1 1
0 0 0 0 0 0 0 0 0 0 0 0 0 0 4 11 18 23 27 34 38 35 29 24 19 13 12 12 10 7 5 2 1 1 1 1 2 3 3 2 1 0 1 2
0 0 0 0 0 0 0 0 0 0 0 0 0 2 8 17 23 27 33 40 43 40 36 29 19 11 10 10 8 7 6 5 4 3 3 3 4 4 3 1 0 0 1 2
0 0 0 0 0 0 0 0 0 0 0 0 1 5 13 23 30 33 38 45 48 45 41 32 20 11 8 9 9 9 9 8 6 6 6 6 5 5 3 1 1 1 1 1
0 0 0 0 0 0 0 0 0 0 0 1 3 7 14 24 33 36 39 46 50 48 41 33 23 14 10 10 11 11 11 10 9 8 7 6 6 5 5 4 4 4 4 4
0 0 0 0 0 0 0 0 0 0 1 4 6 8 14 26 37 41 41 47 51 49 42 35 28 21 16 14 13 12 10 9 10 9 7 6 6 6 7 7 8 8 8 7
0 0 0 0 0 0 0 0 0 1 4 8 10 13 20 31 40 41 42 48 52 49 43 39 32 25 21 18 15 12 9 8 8 8 8 7 8 8 7 8 8 9 9 9
0 0 0 0 0 0 0 0 1 5 9 13 16 21 30 39 42 40 42 47 50 46 42 38 31 24 21 19 16 12 9 8 8 8 8 8 9 7 6 6 6 6 7 7
0 0 0 0 0 0 0 0 3 10 19 23 27 34 41 46 47 44 43 45 44 41 39 35 28 22 17 16 14 11 9 9 9 9 8 8 8 8 6 6 5 5 4 4
1 1 0 0 0 1 2 3 4 12 23 29 35 42 47 48 48 46 43 41 39 37 35 32 27 21 14 11 11 10 9 9 9 8 8 7 7 8 7 7 6 5 4 3
2 2 1 0 0 2 5 6 4 9 17 28 38 44 45 44 44 42 39 36 34 32 31 28 24 17 10 7 7 7 7 6 6 6 5 4 5 6 7 7 6 6 5 5
1 1 1 0 0 2 5 6 4 8 16 27 36 40 39 40 39 36 32 29 27 26 25 23 19 13 7 4 4 5 4 3 3 2 2 2 2 3 4 5 5 5 6 5
1 1 1 2 1 2 4 5 8 15 21 26 29 30 32 33 32 28 24 21 20 21 20 18 15 9 3 1 1 2 2 1 0 0 0 1 1 2 3 4 4 4 5 5
3 3 3 4 4 5 7 10 14 20 23 21 20 20 21 23 22 19 16 15 16 16 15 14 11 6 1 0 0 1 1 1 0 0 0 1 1 2 1 2 2 3 3 3
4 4 4 4 4 7 11 15 17 19 19 16 13 12 12 13 14 12 10 11 13 13 11 10 7 4 1 0 0 1 2 2 1 0 1 1 1 2 1 0 1 1 2 2
3 5 5 3 3 6 12 15 16 15 13 11 10 8 8 9 9 8 7 8 10 9 8 6 4 2 0 0 0 1 2 2 1 0 1 1 1 1 0 0 0 0 1 1

GEFSCGP_con_probscp_156.txt.gz
Probability
0 0 0 0 0 0 0 0 0 0 0 0 0 0 1 3 6 8 11 12 13 13 12 13 18 23 24 24 21 16 10 5 3 2 2 1 0 0 0 0 0 0 0 0
0 0 0 0 0 0 0 0 0 0 0 0 0 0 1 2 5 7 10 12 14 16 17 20 24 24 24 23 22 18 12 7 4 3 2 1 0 0 0 0 0 0 0 0
0 0 0 0 0 0 0 0 0 0 0 0 0 0 0 2 4 7 10 13 16 19 25 29 30 27 24 22 22 20 15 9 5 3 2 1 0 0 0 0 0 0 0 0
0 0 0 0 0 0 0 0 0 0 0 0 0 0 1 2 4 7 11 15 17 21 28 33 33 30 26 23 21 20 15 8 4 3 3 2 1 1 0 0 0 0 0 0
0 0 0 0 0 0 0 0 0 0 0 0 0 0 1 1 2 5 11 17 19 21 28 33 32 28 24 20 18 17 12 6 4 3 3 2 2 2 1 0 0 0 0 0
0 0 0 0 0 0 0 0 0 0 0 0 0 0 0 0 0 3 11 19 21 22 28 32 28 22 18 14 12 12 9 5 4 3 2 1 2 2 1 0 0 0 0 0
0 0 0 0 0 0 0 0 0 0 0 0 0 0 0 0 0 2 10 18 21 21 26 29 24 16 12 10 10 9 7 5 4 2 1 0 1 1 0 0 0 0 0 0
0 0 0 0 0 0 0 0 0 0 0 0 0 0 0 0 0 2 9 17 18 18 21 23 19 14 10 9 10 10 8 5 3 2 1 0 0 0 0 0 0 0 0 0
0 0 0 0 0 0 0 0 0 0 0 0 0 0 0 0 0 4 11 17 17 15 15 17 17 14 11 10 10 10 8 4 3 3 1 0 0 0 0 0 0 0 0 0
0 0 0 0 0 0 0 0 0 0 0 0 0 0 0 0 1 7 13 16 16 13 11 13 16 15 11 9 8 8 6 4 3 3 2 0 0 0 0 0 0 0 0 0
0 0 0 0 0 0 0 0 0 0 0 0 0 0 0 0 2 7 12 14 14 12 11 12 14 15 13 9 7 5 4 3 2 2 1 0 0 0 1 1 0 0 0 0
0 0 0 0 0 0 0 0 0 0 0 0 0 0 0 0 3 7 10 10 11 12 13 14 15 15 14 9 5 4 3 1 1 1 0 1 1 1 2 1 0 0 0 0
0 0 0 0 0 0 0 0 0 0 0 0 0 0 0 0 2 7 9 9 8 10 14 16 16 15 12 8 5 3 2 1 0 1 1 2 2 3 2 1 0 0 0 0
0 0 0 0 0 0 0 0 0 0 0 0 0 0 0 1 2 5 9 10 8 10 15 18 17 14 11 8 5 4 3 2 1 2 3 3 3 3 2 1 0 1 1 0
0 0 0 0 0 0 0 0 0 0 0 0 0 0 0 1 2 5 10 12 12 14 18 19 18 15 11 8 7 6 5 4 3 3 3 3 3 2 1 1 1 3 3 2
0 0 0 0 0 0 0 0 0 0 0 0 0 0 0 1 3 8 13 16 17 20 21 20 18 15 12 11 10 9 7 5 4 3 3 3 2 1 1 2 4 5 5 5
0 0 0 0 0 0 0 0 0 0 0 0 0 1 1 2 5 10 16 19 19 20 20 18 16 14 13 13 13 10 7 4 3 3 3 2 2 2 2 3 5 6 6 6
0 0 0 0 0 0 0 0 0 0 1 2 2 2 3 5 8 10 13 15 15 16 17 17 15 13 12 14 13 10 5 3 3 2 1 1 1 2 2 3 4 5 6 6
0 0 0 0 0 0 0 1 0 1 3 5 5 5 7 9 10 9 10 12 13 15 17 17 15 13 12 13 13 9 5 4 3 1 1 1 2 2 2 2 3 4 4 4
0 0 0 0 0 0 0 0 0 1 2 3 5 6 8 9 10 10 12 14 15 15 17 17 16 13 12 11 10 8 6 5 3 1 1 2 2 1 1 1 1 2 2 2
0 0 0 0 0 0 0 0 0 0 0 1 3 5 8 8 9 13 16 17 16 15 15 15 14 11 9 7 7 6 4 3 2 0 0 1 1 0 0 0 0 1 1 1
0 0 0 0 0 0 0 0 0 0 0 0 2 5 9 12 14 16 16 16 16 16 15 14 10 7 5 4 3 3 1 1 0 0 0 0 0 0 0 0 0 1 2 1
0 0 0 0 0 0 0 0 0 0 0 1 3 7 11 15 17 15 13 13 15 16 16 14 9 5 3 2 1 1 0 0 0 0 0 0 0 0 0 0 0 1 2 2
0 0 0 0 0 0 0 0 1 2 2 3 6 9 11 14 15 13 12 12 13 14 14 13 9 5 2 1 0 0 0 0 0 0 0 0 0 0 0 0 0 0 1 2
0 0 0 0 0 0 0 1 3 4 5 6 7 8 9 10 10 10 9 10 11 11 10 9 7 5 2 0 0 0 0 0 0 0 0 0 0 0 0 0 0 0 0 1
0 0 0 0 0 0 0 1 3 5 6 7 7 6 7 7 6 6 6 6 7 6 6 5 4 3 2 0 0 0 0 0 0 0 0 0 0 0 0 0 0 0 0 0

GEFSCGP_con_probscp_162.txt.gz
Probability
0 0 0 0 0 0 0 0 0 0 0 0 0 0 0 0 0 0 1 6 13 19 22 21 19 18 18 19 20 19 18 17 14 10 7 6 4 3 1 1 3 4 2 1
0 0 0 0 0 0 0 0 0 0 0 0 0 0 0 0 0 0 1 6 12 18 21 22 23 24 23 22 21 20 19 17 14 11 9 6 4 3 1 2 5 6 3 2
0 0 0 0 0 0 0 0 0 0 0 0 0 0 0 0 0 0 1 4 9 15 19 23 28 31 29 25 21 19 20 18 16 14 11 8 5 3 2 3 7 7 5 3
0 0 0 0 0 0 0 0 0 0 0 0 0 0 1 0 0 1 2 3 7 12 18 24 30 33 30 23 18 17 17 17 17 16 14 10 7 4 3 3 5 6 5 3
0 0 0 0 0 0 0 0 0 0 0 0 0 0 0 0 0 1 2 3 6 12 18 24 30 33 27 18 15 14 15 16 16 16 15 12 9 6 5 5 5 6 6 4
0 0 0 0 0 0 0 0 0 0 0 0 0 0 0 0 0 0 1 3 6 12 18 23 29 29 22 15 12 12 13 15 16 16 14 13 11 9 8 6 5 6 7 5
0 0 0 0 0 0 0 0 0 0 0 0 0 0 0 0 0 0 1 3 7 13 18 21 24 23 18 13 11 11 12 13 14 14 13 12 12 10 8 4 3 4 6 6
0 0 0 0 0 0 0 0 0 0 0 0 0 0 0 0 0 0 1 3 8 14 17 17 17 16 14 12 11 12 13 13 12 11 10 10 10 8 5 2 1 3 5 5
0 0 0 0 0 0 0 0 0 0 0 0 0 0 0 0 0 0 1 4 9 15 17 15 11 10 11 13 13 13 14 13 9 6 6 7 6 5 2 1 1 4 6 6
0 0 0 0 0 0 0 0 0 0 0 0 0 0 0 0 0 0 1 4 11 18 21 17 11 9 11 14 15 14 12 10 7 5 5 4 3 2 1 1 2 5 5 5
0 0 0 0 0 0 0 0 0 0 0 0 0 0 0 0 0 1 2 7 14 21 24 22 16 13 14 16 17 15 11 7 5 5 5 4 1 0 0 1 3 3 3 2
0 0 0 0 0 0 0 0 0 0 0 0 0 0 0 0 1 2 5 10 17 22 24 25 22 20 20 19 18 16 11 8 6 6 7 5 3 1 1 2 3 2 1 0
0 0 0 0 0 0 0 0 0 0 0 0 0 0 0 0 1 4 8 14 21 24 24 25 27 27 25 23 19 16 13 10 8 8 8 8 5 4 3 4 4 3 1 0
0 0 0 0 0 0 0 0 0 0 0 0 0 0 0 1 2 5 11 19 26 28 28 29 30 31 30 27 22 19 16 13 12 12 11 10 8 6 6 6 5 3 1 0
0 0 0 0 0 0 0 0 0 0 0 0 0 0 0 1 3 7 14 22 30 34 35 35 36 35 34 30 26 22 19 17 16 15 15 14 12 9 8 7 5 3 1 0
0 0 0 0 0 0 0 0 0 0 0 0 0 0 0 1 5 11 18 26 33 37 39 39 40 40 37 33 28 23 20 19 18 17 17 17 15 12 10 8 6 4 4 3
0 0 0 0 0 0 0 0 0 0 0 0 0 0 0 2 8 15 21 26 33 38 39 40 42 42 39 34 30 26 22 20 18 17 16 16 15 13 11 9 8 8 7 7
0 0 0 0 0 0 0 0 0 0 0 0 0 0 1 4 10 15 20 25 31 37 40 41 42 42 39 36 33 29 25 21 17 16 16 16 15 13 11 10 9 8 8 9
0 0 0 0 0 0 0 0 0 0 0 1 2 3 4 6 9 14 20 26 31 36 40 41 41 40 39 38 37 33 27 20 16 15 16 15 13 11 9 8 8 8 8 8
0 0 0 0 0 0 1 1 0 0 3 8 11 12 12 14 15 20 26 30 32 35 38 40 40 39 39 40 41 38 29 21 17 15 13 12 10 8 7 7 8 8 7 7
0 0 0 0 0 1 2 3 4 8 15 22 25 24 24 27 30 32 35 35 34 33 35 37 40 42 42 42 43 39 30 22 17 14 10 8 6 5 5 7 9 9 7 6
1 1 1 1 1 3 6 9 13 23 31 34 34 33 33 36 38 39 39 38 36 33 31 34 39 42 41 39 38 34 26 18 13 10 7 4 2 2 3 5 7 8 7 5
3 3 4 4 4 6 11 16 22 30 37 40 38 37 37 36 36 35 34 34 34 32 29 30 34 35 34 32 30 26 20 14 10 6 3 1 0 0 2 3 4 5 6 5
5 6 8 8 7 8 14 21 26 31 35 39 39 36 33 32 30 26 25 27 27 26 25 25 27 28 27 25 22 19 15 11 8 4 1 0 0 0 1 2 2 3 4 4
6 7 9 10 9 9 13 20 26 29 32 34 33 29 26 26 24 20 20 23 22 21 22 24 24 24 22 19 17 15 12 8 4 2 0 0 0 0 0 1 1 1 2 2
5 6 8 9 10 10 12 17 23 27 28 28 28 26 23 21 19 17 18 21 22 21 23 25 25 22 18 15 14 12 9 5 2 0 0 0 0 0 0 0 0 0 1 1

GEFSCGP_con_probscp_168.txt.gz
Probability
0 0 0 0 0 0 0 0 0 0 0 0 0 1 1 2 5 13 24 39 57 68 74 79 81 78 76 76 73 66 60 59 55 46 35 24 15 10 8 11 12 11 11 11
0 0 0 0 0 0 0 0 0 0 0 0 0 1 2 3 7 13 23 37 55 68 75 79 80 78 77 78 75 68 62 60 56 48 37 27 20 14 12 13 14 14 13 13
0 0 0 0 0 0 0 0 0 0 0 0 0 2 4 6 8 12 19 31 48 62 72 77 78 77 77 79 77 71 67 64 59 52 40 32 26 20 16 15 17 18 17 16
0 0 0 0 0 0 0 0 0 0 0 0 0 2 6 9 9 10 15 24 39 55 68 75 76 74 73 74 74 74 71 64 59 54 43 34 27 21 18 17 19 20 19 16
0 0 0 0 0 0 0 0 0 0 0 0 0 2 6 8 9 11 16 23 35 51 64 73 74 71 68 67 67 69 68 60 55 50 42 33 25 20 17 16 18 20 18 14
0 0 0 0 0 0 0 0 0 0 0 0 0 1 3 5 8 13 19 24 33 47 60 69 72 69 66 62 59 59 60 56 49 42 36 31 25 19 16 14 15 16 14 12
0 0 0 0 0 0 0 0 0 0 0 0 0 0 1 3 8 13 19 24 32 43 55 65 69 68 65 59 55 54 54 51 47 39 34 31 26 20 16 14 13 12 10 8
0 0 0 0 0 0 0 0 0 0 0 0 0 0 1 4 7 10 15 23 31 41 51 60 64 65 63 58 54 53 51 49 45 38 32 30 26 20 16 16 14 11 8 5
0 0 0 0 0 0 0 0 0 0 0 0 0 0 2 4 4 6 12 22 31 39 48 54 58 58 58 58 57 56 52 46 40 34 30 28 25 19 16 17 15 12 9 7
0 0 0 0 0 0 0 0 0 0 0 0 0 0 1 2 2 5 13 23 32 39 46 52 54 54 56 59 62 59 53 45 38 33 29 25 22 19 17 16 15 13 11 9
0 0 0 0 0 0 0 0 0 0 0 0 0 0 0 1 2 6 15 27 35 41 48 54 58 59 59 61 64 61 53 46 40 35 30 26 23 20 17 15 14 13 10 9
0 0 0 0 0 0 0 0 0 0 0 0 0 0 0 1 3 10 21 33 41 46 52 58 64 66 64 61 62 60 53 47 41 37 32 29 26 22 18 15 14 13 12 10
0 0 0 0 0 0 0 0 0 0 0 0 0 0 0 1 5 15 28 38 46 51 55 62 68 69 67 63 61 57 52 46 42 39 36 34 30 25 22 20 17 16 16 15
0 0 0 0 0 0 0 0 0 0 0 0 0 0 1 2 9 22 34 42 49 54 60 66 71 72 71 68 62 56 50 46 43 41 41 40 35 30 27 24 21 20 19 19
0 0 0 0 0 0 0 0 0 0 0 0 0 2 4 9 19 33 43 48 53 57 64 71 75 77 75 71 65 59 53 49 46 44 44 44 39 34 31 28 24 22 21 19
0 0 0 0 0 0 0 0 0 0 0 0 1 4 11 20 34 46 52 55 59 63 69 76 80 82 79 73 68 65 61 54 49 46 45 44 40 35 32 28 24 23 22 20
4 4 3 1 0 0 0 0 0 0 0 0 2 8 20 34 47 55 58 60 65 70 75 81 84 84 79 72 70 71 66 57 51 46 44 42 39 35 31 27 23 22 21 20
11 11 7 1 0 0 0 0 0 0 1 3 9 16 28 41 50 56 62 67 72 76 79 83 83 80 75 71 69 69 65 58 52 47 44 42 39 35 31 27 23 21 21 20
13 14 7 1 0 0 1 1 1 1 5 14 21 26 33 39 45 54 65 73 76 78 80 82 78 74 71 69 66 63 60 56 51 48 46 43 38 33 30 27 23 20 19 18
7 9 5 1 0 2 4 5 4 7 18 32 38 38 40 43 47 58 70 75 75 76 79 80 74 70 69 67 63 59 57 54 50 47 45 41 38 33 29 27 23 19 15 12
2 3 3 2 2 6 12 14 16 26 42 54 55 53 54 58 63 69 75 76 73 73 75 74 70 67 65 62 59 57 56 52 47 43 41 40 38 33 28 25 20 14 11 9
1 3 5 6 11 20 28 31 39 53 63 67 66 65 67 70 72 74 76 75 71 69 67 64 61 61 58 55 53 53 51 47 42 38 36 36 35 29 22 18 14 10 8 7
3 5 10 17 28 40 46 49 55 62 65 66 65 66 68 69 70 72 73 70 66 62 58 56 55 55 53 49 47 46 43 39 36 32 29 29 26 20 14 11 8 6 4 4
5 8 17 29 40 46 49 51 51 53 56 59 60 61 64 66 67 69 69 65 60 56 53 52 53 52 49 44 39 37 36 33 29 25 22 20 16 11 8 6 3 2 2 2
7 10 19 32 40 40 41 40 39 42 49 53 57 61 65 66 66 65 63 59 54 52 51 50 48 45 41 36 32 30 29 27 23 20 18 14 9 5 3 2 1 0 1 1
7 11 20 31 37 38 37 34 33 37 44 50 57 64 67 66 64 60 56 53 51 50 50 47 42 37 32 29 27 26 25 23 21 18 15 10 5 2 1 0 0 0 0 0

GEFSCGP_con_probscp_174.txt.gz
Probability
0 0 0 0 0 0 0 0 0 0 1 2 2 3 8 16 27 37 45 49 50 52 58 65 72 74 69 62 55 49 44 36 25 16 11 8 5 4 2 1 0 0 0 0
0 0 0 0 0 0 0 0 0 0 1 1 1 2 7 16 25 35 46 52 55 58 60 64 70 73 70 62 55 51 46 38 26 16 10 7 5 3 2 1 0 0 0 1
0 0 0 0 0 0 0 0 0 0 1 1 0 1 5 13 21 32 44 55 61 64 63 64 68 70 68 62 54 49 45 37 27 17 10 7 5 3 2 0 0 0 1 2
0 0 0 0 0 0 0 0 0 0 0 0 0 1 3 9 17 26 39 52 62 64 62 63 65 67 66 61 53 45 39 32 25 18 10 6 4 2 1 0 0 0 1 2
0 0 0 0 0 0 0 0 0 0 0 0 0 0 2 5 11 22 36 49 57 60 59 59 62 64 63 59 52 44 34 25 21 17 11 6 3 1 1 0 1 1 1 1
0 0 0 0 0 0 0 0 0 0 0 0 0 0 1 2 8 19 34 47 53 56 55 55 57 60 58 56 51 43 31 21 16 14 10 5 2 1 0 0 1 2 2 1
0 0 0 0 0 0 0 0 0 0 0 0 0 0 1 2 6 16 31 45 52 54 52 51 54 56 55 54 51 43 31 21 15 13 9 4 2 1 0 0 1 2 2 1
0 0 0 0 0 0 0 0 0 0 0 0 0 0 1 3 7 16 29 43 52 53 50 50 51 52 52 51 48 42 32 23 18 14 10 5 2 1 0 0 0 1 1 1
0 0 0 0 0 0 0 0 0 0 0 0 0 0 1 4 10 18 29 43 50 50 49 48 46 44 44 44 42 38 31 26 22 17 12 7 4 1 0 1 1 1 1 2
0 0 0 0 0 0 0 0 0 0 0 0 0 0 1 5 12 21 32 43 48 49 48 45 38 35 36 38 38 34 30 26 22 18 14 10 5 2 2 2 3 3 3 2
0 0 0 0 0 0 0 0 0 0 0 0 0 0 0 4 12 22 33 43 49 49 46 41 35 32 35 37 36 33 29 25 22 19 16 12 6 3 3 5 6 5 4 2
0 0 0 0 0 0 0 0 0 0 0 0 0 0 1 6 16 27 36 43 47 46 43 39 37 36 37 37 34 30 26 23 22 21 19 13 8 5 5 7 7 6 4 2
0 0 0 0 0 0 0 0 0 0 0 0 0 1 5 13 24 34 41 44 44 43 40 38 38 38 38 37 33 28 23 22 22 22 19 14 10 8 8 8 7 5 3 2
0 0 0 0 0 0 0 0 0 0 0 0 0 3 11 20 30 39 44 47 47 45 42 40 38 37 38 37 34 28 23 22 23 22 19 15 11 10 9 9 7 4 3 2
0 0 0 0 0 0 0 0 0 0 0 0 1 6 13 23 33 42 48 53 52 49 47 47 43 42 43 42 36 30 26 25 25 24 20 16 12 10 10 9 7 5 3 3
0 0 0 0 0 0 0 0 0 0 0 1 4 9 17 28 40 49 55 58 56 52 52 52 50 49 49 47 39 32 28 29 30 28 23 17 13 11 10 8 7 6 5 4
0 0 0 0 0 0 0 0 1 3 4 6 11 18 30 42 50 57 62 60 56 54 53 53 53 51 50 46 40 33 31 32 33 30 24 18 14 12 10 9 8 7 5 4
0 0 0 0 0 0 0 1 4 10 16 20 26 36 48 57 60 63 65 61 57 56 55 53 52 50 48 44 40 35 34 35 32 27 22 18 14 11 9 8 7 6 3 2
0 0 0 0 0 0 1 5 11 19 29 38 45 53 62 68 68 65 65 64 63 62 58 53 51 50 47 44 41 38 36 34 30 25 21 17 14 11 9 6 5 3 1 0
0 0 0 0 0 1 6 16 21 25 37 50 58 63 68 72 70 65 65 69 69 66 61 55 51 49 45 42 42 39 35 30 26 23 20 17 14 11 8 5 3 2 1 0
1 0 0 0 1 4 14 25 28 29 40 54 63 68 69 67 65 64 67 70 70 65 59 55 51 46 40 37 38 35 30 24 21 20 18 14 12 9 6 3 1 1 1 0
1 0 0 0 3 9 20 27 28 33 45 56 64 67 65 64 64 66 68 69 68 63 56 50 46 41 34 31 31 29 24 19 18 17 15 11 9 6 3 1 0 0 0 0
1 1 4 7 12 19 27 29 31 37 46 54 58 59 60 61 61 63 65 65 62 56 49 44 41 36 30 27 26 23 19 17 16 16 13 9 6 4 2 0 0 0 0 0
1 4 11 19 25 30 34 34 36 39 43 48 50 50 52 53 52 53 56 55 50 45 42 39 35 30 26 24 22 19 17 16 16 15 11 6 3 2 0 0 0 0 0 0
4 8 16 23 27 30 31 33 36 40 42 44 43 42 42 43 42 42 43 41 37 35 35 32 29 26 24 22 18 16 16 16 16 13 8 3 1 0 0 0 0 0 0 0
6 9 15 20 23 24 24 27 33 38 41 41 39 38 38 38 36 34 33 31 29 29 28 27 25 24 24 21 16 15 16 16 15 12 6 1 0 0 0 0 0 0 0 0

GEFSCGP_con_probscp_180.txt.gz
Probability
0 0 0 0 0 0 0 0 0 0 0 0 0 1 1 1 3 9 13 15 16 14 13 18 23 24 26 26 25 22 17 11 8 8 7 5 4 3 1 0 0 0 0 0
0 0 0 0 0 0 0 0 0 0 0 0 0 0 1 1 3 8 13 16 17 15 15 21 26 27 28 29 29 26 20 12 9 8 7 5 4 4 3 2 1 0 0 0
0 0 0 0 0 0 0 0 0 0 0 0 0 0 1 1 2 8 13 16 18 18 20 25 29 29 30 31 29 26 20 12 9 8 7 6 6 6 5 4 2 1 1 1
0 0 0 0 0 0 0 0 0 0 0 0 0 0 0 1 3 7 13 17 20 21 24 28 30 29 28 27 25 22 17 11 8 7 6 6 6 6 5 4 3 3 2 2
0 0 0 0 0 0 0 0 0 0 0 0 0 0 0 0 2 6 12 17 20 22 25 28 28 26 24 22 20 19 17 12 8 7 7 7 6 5 4 3 3 3 3 3
0 0 0 0 0 0 0 0 0 0 0 0 0 0 0 0 2 6 11 17 20 23 25 26 25 26 25 21 18 18 16 12 8 8 8 8 6 4 3 3 3 3 3 3
0 0 0 0 0 0 0 0 0 0 0 0 0 0 0 1 3 6 11 17 22 23 23 22 24 28 28 24 19 16 12 9 8 8 8 8 6 4 3 3 3 3 3 3
0 0 0 0 0 0 0 0 0 0 0 0 0 0 0 1 2 4 9 16 22 21 19 19 22 26 26 24 20 15 10 7 6 6 6 7 6 5 4 3 3 3 3 3
0 0 0 0 0 0 0 0 0 0 0 0 0 0 1 1 1 1 6 13 18 18 16 17 20 21 21 20 18 15 12 9 7 5 5 5 6 6 5 4 4 4 4 4
0 0 0 0 0 0 0 0 0 0 0 0 0 0 1 1 1 0 3 9 15 17 17 18 19 18 16 15 14 13 12 10 8 6 5 5 6 6 6 6 6 6 5 5
0 0 0 0 0 0 0 0 0 0 0 0 0 0 0 1 2 1 2 6 12 16 19 20 18 17 15 13 11 10 11 10 8 8 7 6 7 7 6 6 6 6 6 5
0 0 0 0 0 0 0 0 0 0 0 0 0 0 1 2 3 3 3 6 11 15 18 19 18 16 15 15 13 12 11 10 9 10 10 9 9 8 7 7 7 6 5 5
0 0 0 0 0 0 0 0 0 0 0 0 0 1 1 2 4 7 7 8 10 13 15 16 17 16 18 21 19 16 14 14 14 15 14 13 11 9 9 9 8 6 4 4
0 0 0 0 0 0 0 0 0 0 0 0 0 1 2 3 7 11 12 12 11 11 12 14 16 19 22 24 21 18 18 19 20 18 16 14 12 10 10 10 9 7 5 4
0 0 0 0 0 0 0 0 0 0 0 0 0 1 2 5 10 15 18 17 15 13 14 15 18 22 25 24 19 17 19 22 22 20 17 13 11 10 9 9 8 7 6 6
0 0 0 0 0 0 0 0 1 2 2 1 0 1 3 8 14 20 22 21 19 18 18 19 23 28 30 26 19 17 19 23 23 21 17 13 10 9 8 7 6 5 6 6
0 0 0 0 0 0 0 0 1 5 5 3 2 2 6 12 19 25 27 24 21 21 22 24 29 34 34 29 22 20 22 24 24 21 17 14 11 10 8 6 4 4 5 6
0 0 0 0 0 0 0 1 3 6 8 7 7 8 13 20 25 28 29 28 25 25 26 27 31 36 34 28 24 24 27 27 24 21 18 17 15 13 11 7 5 4 4 4
0 0 0 0 0 0 1 4 7 9 10 13 15 20 25 30 30 29 30 32 34 34 32 30 32 35 32 27 26 27 28 26 24 21 19 18 17 15 12 7 4 2 1 1
0 0 0 0 0 0 1 5 9 10 11 17 24 29 34 35 31 29 32 38 43 43 40 36 35 34 31 28 28 28 26 23 20 18 17 16 14 13 10 6 3 1 0 0
0 0 0 0 0 0 3 7 8 7 10 20 30 37 39 37 34 33 36 42 46 46 43 39 36 33 29 28 28 26 22 18 15 13 13 12 10 9 7 5 2 1 0 0
0 0 0 0 0 0 4 10 9 8 15 26 36 43 44 44 43 40 38 42 46 45 41 37 33 28 25 25 26 25 18 13 12 11 11 10 8 7 6 4 2 0 0 0
0 0 1 3 4 5 9 14 15 17 25 33 40 45 48 50 47 42 39 42 45 43 38 35 31 25 21 20 23 23 17 12 12 12 11 9 7 6 5 3 1 0 0 0
1 1 4 10 13 14 16 19 22 26 31 36 41 45 47 46 43 39 38 39 39 35 32 31 29 25 20 18 21 21 17 14 13 12 11 9 7 6 4 2 1 0 0 0
2 2 6 12 16 18 20 22 26 31 35 38 40 41 40 37 33 30 28 28 27 26 26 26 26 24 21 20 21 21 18 15 13 11 10 9 7 5 3 1 0 0 0 0
3 3 6 9 12 16 19 21 26 32 37 39 37 35 32 28 25 21 19 18 18 20 22 22 22 22 20 20 22 21 19 16 14 11 10 9 7 4 2 0 0 0 0 0

GEFSCGP_con_probscp_186.txt.gz
Probability
0 0 0 0 0 0 0 0 0 0 0 0 0 0 0 1 2 3 6 8 11 14 15 15 16 16 19 25 29 30 28 26 24 20 15 11 7 5 3 1 0 1 1 1
0 0 0 0 0 0 0 0 0 0 0 0 0 0 1 2 3 3 5 7 9 14 18 19 20 21 25 30 31 29 26 24 23 20 16 11 8 6 5 3 2 2 1 1
0 0 0 0 0 0 0 0 0 0 0 0 0 0 1 2 3 3 4 5 6 11 19 24 25 28 32 35 33 30 25 22 20 18 16 13 9 8 7 5 3 3 3 2
0 0 0 0 0 0 0 0 0 0 0 0 0 0 0 1 2 3 4 5 6 10 18 24 27 30 33 32 31 30 27 24 19 16 15 13 9 6 4 3 2 3 3 4
0 0 0 0 0 0 0 0 0 0 0 0 0 0 0 0 1 2 4 6 7 10 17 21 24 27 27 25 25 27 29 26 20 15 13 12 9 5 3 1 2 3 3 4
0 0 0 0 0 0 0 0 0 0 0 0 0 0 0 0 0 1 4 7 10 14 18 20 22 24 23 19 19 21 24 24 20 15 12 12 11 9 5 3 3 3 3 3
0 0 0 0 0 0 0 0 0 0 0 0 0 0 0 0 0 1 4 8 12 17 22 25 24 24 22 18 17 19 21 22 21 18 15 13 12 10 7 3 3 3 3 3
0 0 0 0 0 0 0 0 0 0 0 0 0 0 0 0 0 0 3 7 11 17 25 30 27 23 21 19 18 20 22 23 22 20 16 13 11 8 5 3 2 3 4 4
0 0 0 0 0 0 0 0 0 0 0 0 0 0 0 0 0 0 2 6 11 17 26 29 26 21 20 20 20 21 23 23 23 20 15 12 10 8 5 5 6 6 6 6
0 0 0 0 0 0 0 0 0 0 0 0 0 0 0 0 0 1 4 9 14 20 25 26 23 20 20 22 23 22 23 23 22 18 13 11 11 10 8 9 10 10 9 8
0 0 0 0 0 0 0 0 0 0 0 0 0 0 0 1 1 2 6 12 17 21 24 25 22 21 22 23 24 25 25 23 20 16 13 12 13 13 12 11 11 11 10 10
0 0 0 0 0 0 0 0 0 0 0 0 0 1 1 1 2 4 9 15 19 22 25 25 22 22 23 23 24 26 27 24 20 18 18 18 18 18 16 14 13 12 12 12
0 0 0 0 0 0 0 0 0 0 0 0 0 1 1 2 4 7 12 18 21 24 28 28 25 24 24 24 26 29 29 26 23 22 24 25 25 23 21 18 16 14 12 11
0 0 0 0 0 0 0 0 0 0 0 0 0 0 1 3 5 9 15 21 24 27 32 33 29 26 27 28 29 30 32 31 29 27 29 30 29 28 25 20 17 15 13 11
0 0 0 0 0 0 0 0 0 0 0 0 0 0 1 3 6 11 18 24 27 31 37 38 34 31 32 34 33 32 34 36 35 33 32 32 32 30 26 21 19 17 15 14
0 0 0 0 0 0 0 0 0 0 0 0 0 1 3 5 8 15 23 28 31 37 43 44 40 37 38 39 37 36 38 40 41 39 35 32 31 28 24 21 20 19 17 15
0 0 0 0 0 0 0 0 0 0 1 2 3 4 7 11 15 20 27 32 37 43 50 51 46 43 42 41 40 41 42 43 43 39 33 29 26 23 20 20 19 18 16 14
0 0 0 0 0 0 0 0 0 1 4 6 8 10 14 18 22 25 30 35 42 50 56 56 51 48 48 45 43 43 43 44 41 35 29 26 23 19 18 18 17 15 14 14
0 0 0 0 0 0 1 1 2 3 6 9 12 18 23 25 26 30 36 39 44 51 58 59 55 53 53 49 45 43 43 42 39 32 27 25 21 19 18 17 16 15 15 15
0 0 0 0 0 0 1 2 3 4 9 14 19 26 32 31 32 40 47 47 47 52 57 58 57 57 57 51 44 41 40 39 36 31 27 24 21 20 20 18 16 15 15 15
1 1 0 0 0 1 3 5 8 14 23 28 30 35 40 41 44 50 56 54 51 52 56 58 58 59 58 51 44 40 38 36 34 31 26 23 22 21 20 19 17 15 13 12
3 3 1 1 2 6 12 19 25 34 42 42 41 43 49 52 52 53 55 55 53 53 57 60 61 59 55 50 47 45 39 34 32 28 24 22 22 20 19 17 16 13 11 10
8 8 7 6 10 18 27 37 44 48 51 50 47 48 53 55 52 50 50 52 54 55 59 62 62 57 51 47 48 47 40 33 28 24 21 21 20 19 18 16 15 12 10 9
13 14 15 17 22 31 39 46 49 48 48 48 48 49 52 53 52 50 48 49 52 55 59 61 59 54 48 43 42 42 39 32 26 22 20 20 19 18 16 15 13 11 9 8
18 19 21 24 32 40 45 47 48 48 47 46 45 46 49 50 50 49 47 46 47 49 53 55 54 49 43 38 35 35 34 30 25 22 21 20 19 17 14 12 10 8 7 6
21 22 22 26 36 44 47 48 49 51 50 48 45 44 46 48 47 46 45 44 44 45 48 50 49 45 39 35 32 31 30 28 25 23 22 21 19 16 12 10 7 5 4 3

GEFSCGP_con_probscp_192.txt.gz
Probability
0 0 0 0 0 0 0 0 0 0 0 0 1 2 3 3 4 11 20 30 39 45 50 51 49 52 58 59 53 48 41 35 30 26 21 17 13 10 9 10 11 9 6 5
0 0 0 0 0 0 0 0 0 0 0 0 0 2 3 3 4 8 17 26 34 45 55 58 57 56 59 62 59 53 45 38 32 28 24 20 16 13 12 14 14 11 8 7
0 0 0 0 0 0 0 0 0 0 0 0 0 2 4 4 4 6 12 20 27 41 57 64 63 60 60 63 64 59 51 42 35 30 25 21 18 16 16 18 18 15 11 9
0 0 0 0 0 0 0 0 0 0 0 0 1 2 4 5 5 5 9 15 22 36 54 64 64 61 58 59 63 64 58 47 37 31 26 21 18 16 17 18 18 16 13 10
0 0 0 0 0 0 0 0 0 0 0 0 1 3 5 5 5 6 8 12 18 32 48 60 62 59 55 54 59 64 63 53 42 34 28 23 17 14 16 17 17 15 13 12
0 0 0 0 0 0 0 0 0 0 0 0 0 2 3 4 5 7 9 10 16 29 44 53 57 57 54 52 54 58 62 57 48 39 33 26 19 14 15 16 17 15 14 15
0 0 0 0 0 0 0 0 0 0 0 0 0 1 1 2 5 7 8 9 17 31 41 48 53 56 54 51 51 54 59 58 51 43 37 32 26 19 18 19 18 16 15 14
0 0 0 0 0 0 0 0 0 0 0 0 1 2 1 2 5 6 7 10 20 31 39 44 49 53 52 48 47 53 58 58 52 47 41 36 31 25 22 24 22 19 15 12
0 0 0 0 0 0 0 0 0 0 0 0 2 3 3 3 5 5 7 12 20 29 36 39 42 45 47 46 47 52 59 59 53 48 43 36 32 28 26 28 27 23 16 12
0 0 0 0 0 0 0 0 0 0 0 0 1 3 3 3 3 5 9 14 20 25 31 34 36 38 42 47 49 52 58 59 52 46 41 36 34 31 30 31 30 27 20 16
0 0 0 0 0 0 0 0 0 0 0 0 1 2 2 2 2 5 11 19 24 26 28 32 35 37 41 46 49 54 59 59 53 47 44 41 38 36 34 32 31 28 23 20
0 0 0 0 0 0 0 0 0 0 0 0 1 1 1 1 2 7 16 25 29 30 31 34 38 41 43 46 50 54 58 58 54 50 49 46 41 37 35 33 30 27 24 22
0 0 0 0 0 0 0 0 0 0 0 0 1 2 3 3 5 12 23 32 35 37 38 42 45 47 47 49 52 54 55 56 53 51 51 48 43 39 36 34 32 27 23 20
0 0 0 0 0 0 0 0 0 0 0 0 2 5 6 7 10 17 29 37 42 45 49 53 55 53 53 53 54 54 54 56 54 52 52 50 46 42 38 36 34 29 24 20
0 0 0 0 0 0 0 0 0 0 0 0 3 7 10 13 18 25 34 43 50 54 58 62 62 60 57 56 56 56 57 59 57 54 53 52 48 43 37 34 32 30 26 23
1 2 1 0 0 0 0 0 0 0 0 1 5 10 16 23 31 40 46 50 56 61 65 67 68 66 63 60 59 59 60 60 58 55 52 51 47 40 33 30 29 27 26 25
6 7 4 0 0 0 0 0 0 1 2 4 8 14 21 31 42 52 57 57 59 65 70 73 73 71 68 64 62 59 57 57 55 52 49 48 45 36 28 25 24 23 22 22
12 16 9 0 0 0 0 0 1 3 5 8 12 18 25 35 44 54 62 64 64 67 71 74 73 71 69 67 63 57 54 53 51 48 46 45 41 34 26 22 21 20 19 18
16 22 12 0 0 0 0 0 1 3 6 10 15 23 30 35 42 55 66 71 70 70 71 71 69 68 67 67 64 58 54 52 50 47 46 44 39 31 26 23 21 20 19 19
13 18 10 0 0 0 1 2 1 3 9 15 22 32 40 43 49 61 71 73 72 70 71 70 67 68 69 68 65 60 57 55 52 49 47 43 37 30 27 25 22 20 20 20
6 8 6 1 0 2 5 7 10 17 26 30 35 44 54 61 66 71 74 72 68 67 69 68 68 69 69 68 66 62 60 58 54 50 47 42 35 28 25 24 21 19 19 19
2 3 5 5 8 15 22 26 32 43 49 48 49 55 64 73 78 77 74 71 67 66 67 68 69 68 67 67 66 64 62 60 55 49 43 38 32 26 23 23 21 19 19 19
5 7 11 16 25 36 44 50 54 58 57 54 55 59 64 72 77 77 75 73 71 69 69 68 67 66 65 65 65 64 63 60 53 44 36 30 26 23 22 22 21 20 19 19
12 16 24 33 41 46 52 57 60 57 53 52 53 57 62 69 72 74 75 75 74 72 69 67 64 63 62 62 61 61 60 55 48 38 30 24 22 21 21 21 21 20 19 18
14 21 32 43 48 48 50 55 57 55 52 50 50 54 60 65 68 70 71 72 70 68 66 63 60 58 57 56 54 54 53 49 41 33 26 22 21 22 22 20 18 17 16 14
13 21 33 44 50 50 51 55 55 55 53 51 50 52 57 62 65 67 67 67 64 62 62 60 56 53 52 51 49 49 48 44 38 30 24 22 22 23 23 20 16 12 11 10

GEFSCGP_con_probscp_198.txt.gz
Probability
0 0 0 0 0 0 0 0 0 0 2 4 7 9 7 6 7 10 13 17 19 24 32 39 43 44 41 34 28 23 20 17 16 14 12 10 8 8 8 6 4 3 3 3
0 0 0 0 0 0 0 0 0 1 3 5 7 7 6 6 8 10 12 17 20 24 33 41 45 46 43 39 33 28 25 21 19 17 14 11 10 10 9 8 5 3 3 3
0 0 0 0 0 0 0 0 0 2 3 4 5 5 5 5 7 10 14 17 20 24 31 40 45 47 47 43 38 34 29 25 23 20 16 13 11 11 10 9 6 4 3 4
0 0 0 0 0 0 0 0 0 1 1 1 2 3 3 3 4 10 15 19 23 25 29 36 43 47 47 43 39 34 29 26 23 21 18 14 12 11 10 8 6 4 4 5
0 0 0 0 0 0 0 0 0 0 0 0 1 1 1 1 2 8 15 22 26 27 29 34 40 44 44 41 38 33 29 25 22 19 17 14 12 9 9 8 7 5 5 5
0 0 0 0 0 0 0 0 0 0 0 0 0 0 0 0 1 7 15 21 25 28 31 34 36 39 41 40 38 35 32 27 23 19 16 14 12 9 9 9 8 6 5 5
0 0 0 0 0 0 0 0 0 0 0 0 0 0 0 0 1 6 13 19 24 29 32 33 34 36 38 41 41 39 35 30 25 22 18 16 14 12 11 11 9 7 5 5
0 0 0 0 0 0 0 0 0 0 0 0 0 0 0 0 1 5 11 17 23 28 30 29 31 33 36 41 42 39 36 32 28 27 23 19 17 15 13 11 9 8 6 6
0 0 0 0 0 0 0 0 0 0 0 0 0 0 0 1 3 6 11 16 20 25 27 26 25 27 33 38 39 37 35 32 31 30 27 23 20 18 15 13 11 9 8 8
0 0 0 0 0 0 0 0 0 0 0 0 0 0 1 3 5 7 11 17 22 24 25 24 22 22 27 32 33 34 35 34 32 31 28 24 22 20 19 17 15 13 11 10
0 0 0 0 0 0 0 0 0 0 0 0 0 0 1 3 5 8 12 19 24 25 25 22 20 22 26 29 29 30 33 35 35 33 29 27 25 23 21 19 18 15 13 12
0 0 0 0 0 0 0 0 0 0 0 0 0 1 1 3 7 11 16 21 25 26 25 22 23 26 28 28 28 29 33 37 37 35 32 31 30 28 25 22 20 17 14 12
0 0 0 0 0 0 0 0 0 0 0 0 0 1 3 6 11 17 22 26 28 29 30 28 28 29 30 29 28 30 35 39 39 37 36 35 34 32 28 25 22 19 15 13
0 0 0 0 0 0 0 0 0 0 0 0 1 2 5 9 16 22 28 31 34 36 37 34 33 33 32 31 30 32 37 41 41 41 40 37 34 32 29 27 24 19 15 14
0 0 0 0 0 0 0 0 0 0 0 1 4 6 8 12 20 28 34 38 41 44 42 38 37 38 38 36 35 35 38 40 42 45 43 37 32 28 26 25 22 16 13 13
0 0 0 0 0 0 0 0 1 2 2 5 8 10 12 16 25 34 42 46 48 48 45 41 39 40 41 41 42 41 40 39 41 46 45 38 29 24 23 20 18 14 12 12
0 0 0 0 0 0 0 1 2 3 5 9 14 16 18 22 31 41 47 50 51 50 46 43 41 40 39 43 45 45 43 40 41 44 45 38 28 21 19 17 16 15 14 13
1 1 1 0 0 0 2 4 6 6 8 13 19 24 27 32 39 46 49 50 51 50 47 45 44 41 40 42 44 44 42 40 39 40 40 34 25 19 17 16 16 15 13 11
1 1 1 0 0 0 3 7 10 10 12 17 25 34 41 46 51 52 50 50 53 54 52 48 47 46 45 43 43 42 40 38 36 34 33 29 23 19 17 17 16 15 12 11
0 0 0 0 0 0 4 9 12 14 17 23 31 42 50 55 56 54 52 54 59 60 57 53 52 51 49 45 43 41 38 34 31 29 26 24 21 18 18 17 16 14 13 12
0 0 0 0 0 1 6 12 14 17 23 29 37 47 55 57 56 56 57 61 65 65 61 58 56 54 50 46 43 40 34 29 26 24 22 21 19 17 16 16 14 14 13 12
0 0 0 0 1 4 10 15 18 23 29 37 45 54 60 62 60 59 60 63 65 64 61 57 55 52 48 45 42 37 30 25 23 23 21 18 16 15 14 13 13 13 14 14
1 2 4 6 8 12 17 22 26 30 37 44 53 59 63 64 62 60 60 60 59 58 56 52 48 46 44 42 39 34 29 25 24 23 19 15 12 11 11 11 11 13 14 15
3 6 11 15 19 22 25 30 36 40 44 50 54 58 61 61 59 57 56 54 53 53 51 47 44 41 39 36 33 30 26 25 24 21 16 11 9 9 10 9 10 11 13 14
5 10 17 20 24 26 28 32 38 43 48 52 54 56 56 56 54 51 49 48 48 48 45 43 41 38 35 31 26 22 22 21 21 18 13 9 9 9 8 8 8 9 11 12
6 12 18 20 23 26 28 29 33 40 47 52 55 55 53 51 48 46 44 43 45 43 41 39 37 35 32 28 21 17 18 18 18 16 11 8 8 8 7 8 8 7 8 9